Вернуться в каталог

COSMOS 1109 DEB

LostHEO
NORAD 32978·DEBRIS·🇷🇺 Russia

Запущен Jun 27, 1979 с Plesetsk Cosmodrome

Loading…

Ближайшие Пролёты (ближайшие 24 часа)

TLE

УстаревшееSource: Space-Track

Эпоха: Jul 15, 2013, 17:07 UTC

1 32978U 79058T   13196.71388267  .00000008  00000-0  00000+0 0  9997
2 32978  71.7322  74.1068 5782344 342.8532  12.9269  1.88237501 57241

Отслеживайте COSMOS 1109 DEB в реальном времени с AllMySat

Download on the App Store